LJMBLJLJ

Guest
Details From LJMB - Maribor
To LJLJ - Ljubljana
Flight Number -
Tags Generated
Created
Modified
Stats Distance 54 nm / 99 km
Max Altitude 0 ft / 0 m
Waypoints 2
Social Downloads 3
Likes 0
Share VATSIM

Download

Looking for another format? Having issues loading an existing format? Contact us
Advertisement - Login to hide

Notes

Generated

Route

LJMB LJLJ

ID Type Via Altitude Latitude Longitude Leg Dist Tot Dist Heading (true) Name
O LJMB APT - 0 ft / 0 m 46.48590˚ 15.68160˚ - 0 nm - -
O LJLJ APT - 0 ft / 0 m 46.23249˚ 14.44039˚ 53 nm 53 nm 254° / 253° -

Altitude Profile

Advertisement - Login to hide

LJMB

Details ICAO LJMB (MBX)
Name MARIBOR
Region Slovenia
Timezone Europe/Ljubljana (UTC+2.0)
Stats Elevation 876 ft / 267 m (AMSL)
Location 46.480625° 15.686020°
Runways 2
Magnetic Variation 3.987° E

METAR

LJMB 250100Z AUTO 00000KT 9999 NSC 16/15 Q1017

Decode

TAF

TAF LJMB 242000Z 2421/2521 01005KT 9999 FEW040 SCT130 TEMPO 2421/2521 SHRA SCT030TCU BKN060 PROB40 TEMPO 2509/2518 VRB10G20KT 5000 TSRA SCT030CB BKN050

Decode

Departure Runways

ID Width Length Bearing (true) Bearing (mag) Surface Threshold Offset Overrun Length
15 148 ft / 45 m 8,160 ft / 2,487 m 146.19° 142.20° Asphalt 0 ft / 0 m 0 ft / 0 m
15L 197 ft / 60 m 3,941 ft / 1,201 m 146.13° 142.14° Grass 0 ft / 0 m 0 ft / 0 m
33 148 ft / 45 m 8,160 ft / 2,487 m 326.20° 322.21° Asphalt 0 ft / 0 m 0 ft / 0 m
33R 197 ft / 60 m 3,941 ft / 1,201 m 326.14° 322.15° Grass 0 ft / 0 m 0 ft / 0 m

LJLJ

Details ICAO LJLJ (LJU)
Name LJUBLJANA
Region Slovenia
Timezone Europe/Ljubljana (UTC+2.0)
Stats Elevation 1,273 ft / 388 m (AMSL)
Location 46.223685° 14.457608°
Runways 1
Magnetic Variation 3.712° E

METAR

LJLJ 250100Z VRB01KT 9999 FEW042 SCT120 13/12 Q1017 NOSIG

Decode

TAF

TAF LJLJ 242000Z 2421/2521 30003KT 9999 FEW050 SCT130 TEMPO 2421/2521 SHRA SCT035TCU BKN050 PROB30 TEMPO 2421/2423 VRB15KT 5000 TSRA SCT030CB BKN050 BECMG 2508/2510 12005KT PROB40 TEMPO 2509/2518 VRB10G20KT 5000 TSRA SCT030CB BKN050

Decode

Destination Runways

ID Width Length Bearing (true) Bearing (mag) Surface Threshold Offset Overrun Length
13 148 ft / 45 m 10,811 ft / 3,295 m 126.47° 122.76° Asphalt 0 ft / 0 m 0 ft / 0 m
31 148 ft / 45 m 10,811 ft / 3,295 m 306.49° 302.78° Asphalt 0 ft / 0 m 0 ft / 0 m

Approach Navaids

Runway Type Ident Frequency Range Bearing (true) Bearing (mag) Slope Elevation
31 Localiser LJB 110.50 MHz 18 nm / 33 km 306.46° 302.75° - 1,282 ft / 391 m (AMSL)
31 Glidescope LJB 110.50 MHz 10 nm / 19 km 306.48° 302.77° 3.00° 1,198 ft / 365 m (AMSL)
31 DME LJB 110.50 MHz 18 nm / 33 km - - - 1,198 ft / 365 m (AMSL)

Popular Alternatives